"Pseudo-MPEC" for A11FpMX

Created 2026 Aug 6 16:35:03 UT using Find_Orb

Click here for an explanation of pseudo-MPECs

 
 Astrometry: 
     A11FpMX*0C2026 08 05.96313622 31 02.422-04 32 07.08   ~862Z 18.73oVNEOCPM22
     A11FpMX 0C2026 08 05.96629022 30 56.422-04 31 59.20   ~862Z 18.19oVNEOCPM22
     A11FpMX 0C2026 08 05.97079722 30 47.738-04 31 49.55   ~862Z 18.34oVNEOCPM22
     A11FpMX 0C2026 08 05.97710622 30 35.803-04 31 34.82   ~862Z 18.60oVNEOCPM22
     A11FpMX 0C2026 08 06.11330522 26 26.086-04 33 55.44   ~8635 17.7 GWNEOCPJ95
     A11FpMX 0C2026 08 06.11465522 26 23.561-04 33 52.38   ~8635 18.3 GWNEOCPJ95
     A11FpMX 0C2026 08 06.11743822 26 18.410-04 33 45.25   ~8635 18.4 GWNEOCPJ95
     A11FpMX KB2026 08 06.56452122 13 36.108-04 14 55.50   ~86F5 18.1 GWNEOCP900
     A11FpMX KB2026 08 06.57412622 13 18.686-04 14 32.93   ~86F5 18.3 GWNEOCP900
     A11FpMX KB2026 08 06.58373022 13 01.224-04 14 10.93   ~86F5 18.0 GWNEOCP900
     A11FpMX KB2026 08 06.58513922 12 58.491-04 14 06.63   ~86EZx18.2 GXNEOCPQ06
     A11FpMX KB2026 08 06.58892022 12 51.566-04 14 00.75   ~86EZ 17.6 GXNEOCPQ06

Station data:
(900) Moriyama  (N35.049753 E135.989940)  Japan.  Observer Y. Ikari. 0.26-m
   f/7.0 reflector + CCD.
(J95) Great Shefford  (N51.474969 W1.447003)  UK/England.  Observer P.
   Birtwhistle. 0.41-m f/6.3 Schmidt-Cassegrain + CCD.
(M22) ATLAS South Africa, Sutherland  (S32.380156 E20.810590)  South Africa.
   Observers L. Denneau, R. Siverd, J. Tonry, H. Weiland. Measurers L.
   Denneau, N. Erasmus, A. Fitzsimmons, J. Robinson, R. Siverd, J. Tonry, H.
   Weiland. 0.5-m f/2.0 Schmidt + CCD.
(Q06) Tarui Observatory, Tarui  (N35.394791 E136.495470)  Japan.  Observer H.
   Watanabe. 0.35-m f/1.9 Schmidt-Cassegrain + CMO.

Orbital elements:  A11FpMX
   Perihelion 2026 Apr 12.303613 +/- 0.0604 TT =  7:17:12.2 (JD 2461142.803613)
Epoch 2026 Aug  6.0 TT = JDT 2461258.5   Earth MOID: 0.0116   Ve: 0.0466
M 149.207158554 +/- 0.10            (J2000 ecliptic)             AutoNEOCP
n   1.289644066 +/- 0.000386        Peri.  199.912081 +/- 0.06
a   0.835903492 +/- 0.000167        Node   312.678887 +/- 0.0007
e   0.26416752 +/- 0.000185         Incl.    5.784517 +/- 0.006
P   0.764/279.142d         H 25.37  G  0.15   U  7.5
q 0.615084933 +/- 0.000257    Q 1.056722051 +/- 0.00015
11 of 12 observations 2026 Aug. 5-6 (15.0 hr); mean residual 0".30
Residuals in arcseconds: 
260805 M22  .21+  .23-    260806 J95  .09+  .05-    260806 900  .13+  .22+    
260805 M22  .38+  .44+    260806 J95  .17-  .21-    260806 900  .17+  .06+    
260805 M22  1.0-  .23-    260806 J95  .08+  .27+    260806 Q06( .44+  2.8+)   
260805 M22  .42+  .01+    260806 900  .07-  .26-    260806 Q06  .16-  .03-    

Ephemerides (geocentric):
Date (UTC) HH   RA             Dec           delta  r     elong  mag " sig PA
---- --------  ------------   ------------  ------ ------ -----  --- --------
2026 08 06 17  22 09 18.167   -04 05 38.85  .02526 1.0380 159.9 18.4 .423 135
2026 08 06 18  22 08 07.433   -04 04 00.03  .02529 1.0380 160.2 18.4 .480 130
2026 08 06 19  22 06 56.919   -04 02 21.20  .02533 1.0381 160.4 18.4 .543 126
2026 08 06 20  22 05 46.628   -04 00 42.38  .02538 1.0382 160.6 18.4 .613 123
2026 08 06 21  22 04 36.561   -03 59 03.58  .02542 1.0382 160.9 18.4 .689 120
2026 08 06 22  22 03 26.723   -03 57 24.80  .02546 1.0383 161.1 18.4 .770 118
2026 08 06 23  22 02 17.116   -03 55 46.06  .02550 1.0384 161.3 18.4 .857 116
2026 08 07 00  22 01 07.741   -03 54 07.36  .02554 1.0384 161.6 18.4 .950 114
2026 08 07 01  21 59 58.603   -03 52 28.72  .02559 1.0385 161.8 18.4 1.05 113
2026 08 07 02  21 58 49.702   -03 50 50.13  .02563 1.0386 162.0 18.4 1.15 112
2026 08 07 03  21 57 41.042   -03 49 11.62  .02568 1.0386 162.2 18.4 1.26 111
2026 08 07 04  21 56 32.624   -03 47 33.20  .02572 1.0387 162.4 18.4 1.37 110
2026 08 07 05  21 55 24.451   -03 45 54.86  .02577 1.0388 162.6 18.4 1.49 109
2026 08 07 06  21 54 16.526   -03 44 16.62  .02582 1.0388 162.8 18.4 1.61 108
2026 08 07 07  21 53 08.850   -03 42 38.50  .02587 1.0389 163.0 18.4 1.74 107
2026 08 07 08  21 52 01.425   -03 41 00.49  .02591 1.0390 163.2 18.4 1.87 107
2026 08 07 09  21 50 54.253   -03 39 22.60  .02596 1.0390 163.4 18.4 2.00 106
2026 08 07 10  21 49 47.337   -03 37 44.85  .02601 1.0391 163.6 18.4 2.14 106
2026 08 07 11  21 48 40.677   -03 36 07.24  .02606 1.0392 163.8 18.4 2.28 105
2026 08 07 12  21 47 34.277   -03 34 29.79  .02612 1.0392 163.9 18.4 2.43 105
2026 08 07 13  21 46 28.137   -03 32 52.49  .02617 1.0393 164.1 18.4 2.58 104
2026 08 07 14  21 45 22.259   -03 31 15.36  .02622 1.0394 164.3 18.4 2.74 104
2026 08 07 15  21 44 16.646   -03 29 38.40  .02627 1.0394 164.4 18.4 2.90 104
2026 08 07 16  21 43 11.297   -03 28 01.63  .02633 1.0395 164.6 18.4 3.06 103
2026 08 07 17  21 42 06.216   -03 26 25.05  .02638 1.0396 164.7 18.4 3.22 103
2026 08 07 18  21 41 01.403   -03 24 48.66  .02644 1.0396 164.9 18.4 3.39 103
2026 08 07 19  21 39 56.859   -03 23 12.48  .02649 1.0397 165.0 18.4 3.57 102
2026 08 07 20  21 38 52.587   -03 21 36.51  .02655 1.0397 165.2 18.4 3.75 102
2026 08 07 21  21 37 48.587   -03 20 00.76  .02660 1.0398 165.3 18.4 3.93 102
2026 08 07 22  21 36 44.860   -03 18 25.23  .02666 1.0399 165.4 18.4 4.11 102
2026 08 07 23  21 35 41.409   -03 16 49.94  .02672 1.0399 165.5 18.4 4.30 102
2026 08 08 00  21 34 38.232   -03 15 14.89  .02678 1.0400 165.7 18.4 4.49 101
2026 08 08 01  21 33 35.333   -03 13 40.08  .02684 1.0401 165.8 18.4 4.68 101
2026 08 08 02  21 32 32.711   -03 12 05.52  .02690 1.0401 165.9 18.4 4.88 101
2026 08 08 03  21 31 30.368   -03 10 31.22  .02696 1.0402 166.0 18.4 5.07 101
2026 08 08 04  21 30 28.304   -03 08 57.19  .02702 1.0403 166.0 18.4 5.28 101
2026 08 08 05  21 29 26.521   -03 07 23.42  .02708 1.0403 166.1 18.4 5.48 101
2026 08 08 06  21 28 25.019   -03 05 49.94  .02714 1.0404 166.2 18.4 5.69 101
2026 08 08 07  21 27 23.798   -03 04 16.73  .02720 1.0404 166.3 18.4 5.90 101
2026 08 08 08  21 26 22.860   -03 02 43.81  .02727 1.0405 166.3 18.4 6.11 100
2026 08 08 09  21 25 22.205   -03 01 11.18  .02733 1.0406 166.4 18.4 6.33 100
2026 08 08 10  21 24 21.834   -02 59 38.85  .02739 1.0406 166.5 18.4 6.54 100
2026 08 08 11  21 23 21.746   -02 58 06.83  .02746 1.0407 166.5 18.4 6.76 100
2026 08 08 12  21 22 21.943   -02 56 35.11  .02752 1.0408 166.6 18.4 6.99 100
2026 08 08 13  21 21 22.426   -02 55 03.70  .02759 1.0408 166.6 18.4 7.21 100
2026 08 08 14  21 20 23.193   -02 53 32.61  .02766 1.0409 166.6 18.4 7.44 100
2026 08 08 15  21 19 24.246   -02 52 01.84  .02772 1.0409 166.6 18.4 7.67 100
2026 08 08 16  21 18 25.585   -02 50 31.40  .02779 1.0410 166.7 18.4 7.90 100